sat.trackr.live / text

‹ back to catalog

STARLINK-34425

NORAD 64350 · 2025-126G

PAYLOAD ACTIVE UNKNOWN

§ Identity

Operator
Country
US
Launch date
2025-06-13
Launch site
AFWTR
Launch vehicle
Mass (kg)
RCS (m²)

Purposes: comms

External: N2YO · Heavens-Above · Gunter

§ Orbital elements

Epoch: 2026-09-20T09:30:20.835936Z

Period
94.14 min
Inclination
70.0002°
Eccentricity
0.0003216
Mean motion
15.29571224 rev/d
Perigee alt
474.9 km
Apogee alt
479.3 km
Semi-major
6,855.2 km
B*
2.1994e-4
RAAN
261.2727°
Arg perigee
270.9216°
Mean anomaly
89.1591°
Rev number
6,990

§ Raw data

STARLINK-344251 64350U 25126G   26263.39607449  .00006198  00000+0  21994-3 0  99962 64350  70.0002 261.2727 0003216 270.9216  89.1591 15.29571224 69900

JSON: /api/v1/satellites/64350 · /tle

For live sub-satellite position, see the globe view (requires WebGL).

§ Visibility from observer

Set your observer location to see the next 7 days of passes ≥ 10°. The values pass through the URL so the page stays shareable.

No JS? Fill the form by hand. The geolocation button needs JavaScript.